QPF
0.10 0.18 0.23 0.27 0.37 0.33 0.20 0.05 0.00 0.00 0.00 0.00 0.00 0.00 0.00 0.00 0.00 0.00 0.00 0.00 0.00 0.00 0.00 0.00 0.00 0.00 0.00 0.00 0.00 0.00 0.00 0.00 0.00 0.00 0.00 0.00 0.00 0.00 0.00 0.00 0.00 0.00 0.00
0.12 0.11 0.14 0.20 0.36 0.29 0.17 0.09 0.03 0.00 0.00 0.00 0.00 0.00 0.00 0.00 0.00 0.00 0.00 0.00 0.00 0.00 0.00 0.00 0.00 0.00 0.00 0.00 0.00 0.00 0.00 0.00 0.00 0.00 0.00 0.00 0.00 0.00 0.00 0.00 0.00 0.00 0.00
0.09 0.14 0.24 0.40 0.40 0.21 0.15 0.17 0.11 0.04 0.00 0.00 0.00 0.00 0.03 0.00 0.00 0.00 0.00 0.00 0.00 0.00 0.00 0.00 0.00 0.00 0.00 0.00 0.00 0.00 0.00 0.00 0.00 0.00 0.00 0.00 0.00 0.00 0.00 0.00 0.00 0.00 0.00
0.01 0.03 0.27 0.84 0.47 0.19 0.22 0.22 0.18 0.10 0.04 0.00 0.00 0.11 0.07 0.00 0.00 0.00 0.00 0.00 0.00 0.00 0.00 0.00 0.00 0.00 0.00 0.00 0.00 0.00 0.00 0.00 0.00 0.00 0.00 0.00 0.00 0.00 0.00 0.00 0.00 0.00 0.00
0.00 0.01 0.11 0.53 0.21 0.06 0.17 0.20 0.12 0.12 0.08 0.01 0.02 0.13 0.08 0.00 0.00 0.00 0.00 0.00 0.00 0.00 0.00 0.00 0.00 0.00 0.00 0.00 0.00 0.00 0.00 0.00 0.00 0.00 0.00 0.00 0.00 0.00 0.00 0.00 0.00 0.00 0.00
0.00 0.07 0.08 0.04 0.03 0.03 0.03 0.04 0.09 0.09 0.06 0.03 0.11 0.15 0.06 0.00 0.00 0.00 0.00 0.00 0.00 0.00 0.00 0.00 0.00 0.00 0.00 0.00 0.00 0.00 0.00 0.00 0.00 0.00 0.00 0.00 0.00 0.00 0.00 0.00 0.00 0.00 0.00
0.00 0.02 0.03 0.02 0.05 0.08 0.03 0.09 0.06 0.04 0.04 0.04 0.06 0.05 0.01 0.00 0.00 0.00 0.00 0.00 0.00 0.00 0.00 0.00 0.00 0.00 0.00 0.00 0.00 0.00 0.00 0.00 0.00 0.00 0.00 0.00 0.00 0.00 0.00 0.00 0.00 0.00 0.00
0.00 0.00 0.01 0.00 0.00 0.03 0.07 0.05 0.02 0.01 0.02 0.02 0.03 0.03 0.01 0.00 0.00 0.00 0.00 0.00 0.00 0.00 0.00 0.00 0.00 0.00 0.00 0.00 0.00 0.00 0.00 0.00 0.00 0.00 0.00 0.00 0.00 0.00 0.00 0.00 0.00 0.00 0.00
0.00 0.00 0.00 0.00 0.00 0.00 0.02 0.03 0.03 0.02 0.01 0.01 0.00 0.00 0.00 0.00 0.00 0.00 0.00 0.00 0.00 0.00 0.00 0.00 0.00 0.00 0.00 0.00 0.00 0.00 0.00 0.00 0.00 0.00 0.00 0.00 0.00 0.00 0.00 0.00 0.00 0.00 0.00
0.00 0.00 0.00 0.00 0.00 0.00 0.00 0.01 0.01 0.00 0.00 0.00 0.00 0.00 0.00 0.00 0.00 0.00 0.00 0.00 0.00 0.00 0.00 0.00 0.00 0.00 0.00 0.00 0.00 0.00 0.00 0.00 0.00 0.00 0.00 0.00 0.00 0.00 0.00 0.00 0.00 0.00 0.00
0.00 0.00 0.00 0.00 0.00 0.00 0.00 0.00 0.00 0.00 0.00 0.00 0.00 0.00 0.00 0.00 0.00 0.00 0.00 0.00 0.00 0.00 0.00 0.00 0.00 0.00 0.00 0.00 0.00 0.00 0.00 0.00 0.00 0.00 0.00 0.00 0.00 0.00 0.00 0.00 0.00 0.00 0.00
0.00 0.00 0.00 0.00 0.00 0.00 0.00 0.00 0.00 0.01 0.00 0.00 0.00 0.00 0.00 0.00 0.00 0.00 0.00 0.00 0.00 0.00 0.00 0.00 0.00 0.00 0.00 0.00 0.00 0.00 0.00 0.00 0.00 0.00 0.00 0.00 0.00 0.00 0.00 0.00 0.00 0.00 0.00
0.00 0.00 0.00 0.00 0.00 0.00 0.00 0.00 0.00 0.00 0.00 0.00 0.00 0.00 0.00 0.00 0.00 0.00 0.00 0.00 0.00 0.00 0.00 0.00 0.00 0.00 0.00 0.00 0.00 0.00 0.00 0.00 0.00 0.00 0.00 0.00 0.00 0.00 0.00 0.00 0.00 0.00 0.00
0.00 0.00 0.00 0.00 0.00 0.00 0.00 0.00 0.00 0.00 0.00 0.00 0.00 0.00 0.00 0.00 0.00 0.00 0.00 0.00 0.00 0.00 0.00 0.00 0.00 0.00 0.00 0.00 0.00 0.00 0.00 0.00 0.00 0.00 0.00 0.00 0.00 0.00 0.00 0.00 0.00 0.00 0.00
0.00 0.00 0.00 0.00 0.00 0.00 0.00 0.00 0.00 0.00 0.00 0.00 0.00 0.00 0.00 0.00 0.00 0.00 0.00 0.00 0.00 0.00 0.00 0.00 0.00 0.00 0.00 0.00 0.00 0.00 0.00 0.00 0.00 0.00 0.00 0.00 0.00 0.00 0.00 0.00 0.00 0.00 0.00
0.00 0.00 0.00 0.00 0.00 0.00 0.00 0.00 0.00 0.00 0.00 0.00 0.00 0.00 0.00 0.00 0.00 0.00 0.00 0.00 0.00 0.00 0.00 0.00 0.00 0.00 0.00 0.00 0.00 0.00 0.00 0.00 0.00 0.00 0.00 0.00 0.00 0.00 0.00 0.00 0.00 0.00 0.00
0.00 0.00 0.00 0.00 0.00 0.00 0.00 0.00 0.00 0.00 0.00 0.00 0.00 0.00 0.00 0.00 0.00 0.00 0.00 0.00 0.00 0.00 0.00 0.00 0.00 0.00 0.00 0.00 0.00 0.00 0.00 0.01 0.01 0.00 0.00 0.00 0.01 0.03 0.03 0.01 0.02 0.01 0.00
0.01 0.00 0.00 0.00 0.00 0.00 0.00 0.00 0.00 0.00 0.00 0.00 0.00 0.00 0.00 0.00 0.00 0.00 0.00 0.00 0.00 0.00 0.00 0.00 0.00 0.00 0.00 0.00 0.00 0.00 0.00 0.00 0.00 0.00 0.00 0.00 0.01 0.01 0.00 0.00 0.02 0.00 0.00
0.00 0.00 0.00 0.00 0.00 0.00 0.00 0.00 0.00 0.00 0.00 0.00 0.00 0.00 0.00 0.00 0.00 0.00 0.00 0.00 0.00 0.00 0.00 0.00 0.00 0.00 0.00 0.00 0.00 0.00 0.00 0.00 0.00 0.00 0.00 0.00 0.01 0.01 0.00 0.01 0.02 0.03 0.04
0.03 0.02 0.01 0.00 0.00 0.00 0.00 0.00 0.00 0.00 0.00 0.00 0.00 0.00 0.00 0.00 0.00 0.00 0.00 0.00 0.00 0.00 0.00 0.00 0.00 0.00 0.00 0.00 0.00 0.00 0.00 0.00 0.00 0.00 0.00 0.00 0.00 0.01 0.00 0.01 0.02 0.02 0.02
0.18 0.11 0.07 0.03 0.00 0.00 0.00 0.00 0.00 0.00 0.00 0.00 0.00 0.00 0.00 0.00 0.00 0.00 0.00 0.00 0.00 0.00 0.00 0.00 0.00 0.00 0.00 0.00 0.00 0.00 0.00 0.00 0.00 0.01 0.02 0.01 0.00 0.01 0.03 0.04 0.03 0.03 0.03
0.32 0.15 0.15 0.12 0.06 0.02 0.02 0.00 0.00 0.00 0.00 0.00 0.00 0.00 0.00 0.00 0.00 0.00 0.00 0.00 0.00 0.00 0.00 0.00 0.00 0.00 0.00 0.00 0.01 0.00 0.00 0.01 0.07 0.08 0.02 0.02 0.05 0.05 0.05 0.06 0.05 0.04 0.03
0.13 0.06 0.09 0.05 0.05 0.09 0.12 0.04 0.01 0.00 0.00 0.00 0.00 0.00 0.01 0.00 0.00 0.00 0.00 0.00 0.00 0.00 0.00 0.00 0.00 0.00 0.00 0.00 0.00 0.00 0.03 0.07 0.07 0.06 0.04 0.01 0.01 0.01 0.02 0.03 0.04 0.04 0.04
0.02 0.03 0.03 0.03 0.06 0.03 0.01 0.00 0.01 0.03 0.02 0.00 0.00 0.00 0.00 0.00 0.00 0.00 0.00 0.00 0.00 0.00 0.00 0.00 0.00 0.00 0.00 0.00 0.01 0.03 0.05 0.04 0.01 0.00 0.01 0.00 0.00 0.00 0.00 0.00 0.02 0.03 0.03
0.03 0.02 0.02 0.03 0.03 0.01 0.01 0.00 0.01 0.00 0.00 0.00 0.01 0.01 0.01 0.01 0.02 0.02 0.01 0.00 0.00 0.00 0.00 0.00 0.00 0.00 0.00 0.00 0.01 0.04 0.05 0.05 0.06 0.07 0.03 0.01 0.00 0.00 0.00 0.00 0.00 0.01 0.01
0.02 0.03 0.01 0.02 0.05 0.03 0.00 0.01 0.02 0.03 0.02 0.04 0.03 0.01 0.00 0.00 0.00 0.00 0.00 0.00 0.00 0.00 0.00 0.00 0.00 0.01 0.00 0.01 0.01 0.01 0.02 0.03 0.03 0.02 0.01 0.00 0.00 0.00 0.00 0.00 0.00 0.00 0.00
MSLP
1008.78 1008.96 1009.20 1009.51 1009.84 1010.70 1011.48 1011.84 1012.58 1012.65 1012.56 1013.13 1013.38 1013.95 1014.09 1014.92 1015.37 1015.38 1015.54 1016.04 1015.99 1015.71 1016.27 1016.62 1016.64 1016.68 1016.70 1016.49 1016.20 1016.36 1016.71 1017.11 1018.01 1018.59 1018.52 1018.78 1019.09 1019.07 1019.10 1019.20 1019.39 1019.49 1019.49
1008.26 1008.24 1008.61 1008.94 1009.77 1011.29 1011.64 1011.14 1012.66 1013.13 1012.46 1012.86 1013.33 1013.80 1014.36 1014.51 1015.04 1015.47 1015.33 1015.65 1016.03 1016.11 1016.07 1016.44 1016.84 1016.80 1016.99 1016.89 1016.66 1016.93 1016.95 1016.89 1017.32 1018.33 1018.67 1018.76 1018.95 1019.19 1019.15 1019.53 1019.32 1019.19 1019.19
1008.65 1008.49 1008.50 1008.52 1009.15 1009.83 1010.80 1010.56 1012.24 1013.45 1012.93 1012.63 1013.60 1013.82 1014.02 1014.28 1014.40 1014.80 1015.25 1015.44 1015.89 1015.91 1016.09 1016.17 1016.52 1016.68 1017.12 1017.10 1017.11 1017.27 1017.11 1017.18 1017.41 1017.94 1018.73 1018.95 1019.22 1019.14 1019.32 1019.36 1019.34 1019.27 1018.98
1008.71 1008.29 1008.34 1008.51 1008.97 1008.53 1010.04 1011.43 1012.17 1011.88 1012.65 1012.84 1013.53 1013.58 1014.02 1014.12 1014.31 1014.68 1014.80 1015.29 1015.60 1015.89 1015.97 1016.25 1016.26 1016.53 1016.85 1016.92 1017.08 1017.10 1017.13 1017.69 1017.92 1018.34 1018.76 1019.08 1019.20 1019.15 1019.15 1019.43 1019.49 1019.23 1018.87
1008.70 1008.25 1008.03 1008.29 1008.92 1009.34 1010.09 1010.15 1010.29 1011.16 1011.35 1013.23 1013.31 1013.31 1013.72 1013.96 1014.09 1014.31 1014.69 1015.14 1015.34 1015.67 1016.07 1016.27 1016.37 1016.34 1016.36 1016.65 1016.88 1017.25 1017.41 1017.69 1018.06 1018.42 1018.95 1019.22 1019.21 1019.18 1019.09 1019.23 1019.47 1019.46 1019.14
1008.49 1008.37 1008.00 1008.28 1008.64 1008.96 1008.85 1009.29 1010.01 1010.94 1012.00 1012.10 1012.72 1012.84 1013.26 1013.71 1013.58 1013.87 1014.22 1014.69 1014.99 1015.24 1015.79 1015.93 1016.15 1016.36 1016.41 1016.61 1016.76 1016.93 1017.01 1017.42 1017.84 1018.37 1018.82 1019.10 1019.02 1019.06 1018.99 1019.00 1019.21 1019.59 1019.62
1008.33 1008.53 1008.54 1008.62 1008.78 1009.06 1009.29 1009.81 1010.30 1010.82 1011.13 1011.43 1011.85 1012.28 1012.75 1013.16 1013.25 1013.59 1013.91 1014.32 1014.76 1015.06 1015.25 1015.63 1015.98 1016.21 1016.35 1016.56 1016.85 1016.97 1016.97 1017.04 1017.13 1017.70 1018.31 1018.52 1018.64 1018.61 1018.67 1018.98 1019.24 1019.44 1019.41
1008.32 1008.45 1008.68 1008.68 1008.79 1008.90 1009.47 1010.22 1010.34 1010.41 1010.71 1011.05 1011.50 1012.06 1012.41 1012.68 1013.03 1013.23 1013.62 1014.23 1014.57 1014.88 1015.07 1015.23 1015.51 1015.82 1015.96 1016.29 1016.72 1016.89 1016.92 1016.99 1017.12 1017.25 1017.54 1017.65 1017.77 1017.93 1018.34 1018.57 1018.75 1019.06 1019.06
1008.36 1008.36 1008.64 1008.83 1008.85 1008.84 1009.11 1009.71 1009.84 1010.13 1010.54 1010.71 1011.19 1011.63 1012.09 1012.40 1012.74 1013.09 1013.60 1014.29 1014.73 1014.82 1014.85 1015.02 1015.23 1015.43 1015.47 1015.76 1016.38 1016.80 1016.87 1016.82 1016.66 1016.69 1016.76 1016.87 1017.13 1017.52 1017.95 1018.47 1018.70 1019.05 1019.09
1008.35 1008.24 1008.40 1008.70 1008.88 1009.06 1009.29 1009.37 1009.59 1009.92 1010.12 1010.48 1011.05 1011.36 1011.81 1012.16 1012.43 1012.96 1013.43 1014.23 1014.69 1014.88 1014.69 1014.72 1014.82 1014.99 1015.18 1015.51 1015.93 1016.40 1016.73 1016.60 1016.46 1016.46 1016.54 1016.49 1016.74 1016.91 1017.08 1017.46 1017.97 1018.55 1018.88
1007.99 1008.21 1008.37 1008.44 1008.79 1009.04 1009.14 1009.50 1009.84 1010.14 1010.49 1010.85 1011.16 1011.42 1011.67 1011.87 1012.27 1012.86 1013.17 1013.93 1014.29 1014.43 1014.60 1014.75 1014.72 1014.87 1014.94 1015.07 1015.30 1015.72 1015.75 1015.76 1016.11 1016.27 1016.28 1016.20 1016.09 1016.18 1016.45 1016.71 1016.98 1017.36 1017.71
1007.60 1007.86 1008.36 1008.64 1008.64 1008.96 1009.21 1009.48 1009.69 1009.91 1010.40 1010.64 1011.14 1011.60 1011.90 1011.87 1012.09 1012.42 1012.91 1013.34 1013.52 1013.95 1014.15 1014.15 1014.26 1014.26 1014.20 1014.27 1014.71 1014.83 1015.12 1015.38 1015.63 1015.96 1016.11 1016.07 1016.06 1015.91 1015.76 1015.95 1016.09 1016.23 1016.20
1007.58 1007.67 1007.86 1008.46 1008.81 1008.96 1009.09 1009.26 1009.56 1009.90 1010.15 1010.50 1011.05 1011.55 1011.64 1011.73 1011.94 1012.19 1012.47 1012.80 1013.12 1013.42 1013.41 1013.54 1013.68 1013.75 1013.98 1014.14 1014.15 1014.21 1014.53 1014.82 1015.27 1015.69 1015.79 1015.76 1015.57 1015.28 1015.27 1015.42 1015.35 1015.45 1015.59
1007.31 1007.74 1007.87 1008.17 1008.50 1008.79 1008.84 1009.02 1009.26 1009.73 1010.13 1010.48 1010.90 1011.23 1011.24 1011.48 1011.83 1011.86 1012.07 1012.38 1012.64 1012.71 1012.78 1013.17 1013.41 1013.56 1013.64 1013.72 1013.75 1013.67 1014.05 1014.24 1014.60 1014.89 1015.03 1014.91 1014.94 1015.05 1015.02 1014.92 1015.12 1014.98 1015.29
1006.74 1007.23 1007.65 1007.79 1008.27 1008.60 1008.64 1008.74 1008.98 1009.17 1009.33 1009.83 1010.09 1010.40 1010.84 1011.11 1010.74 1010.84 1011.13 1011.48 1011.56 1011.51 1012.34 1012.94 1013.39 1013.64 1013.63 1013.58 1013.48 1013.39 1013.47 1013.86 1014.20 1014.20 1014.47 1014.48 1014.44 1014.42 1014.31 1014.18 1014.44 1014.78 1015.06
1006.19 1006.64 1007.13 1007.55 1007.72 1008.13 1008.38 1008.64 1008.59 1008.56 1008.85 1009.03 1009.14 1009.47 1009.59 1009.53 1009.56 1009.78 1009.88 1009.96 1010.12 1010.75 1011.79 1012.19 1012.49 1012.70 1012.87 1012.80 1012.78 1012.70 1012.79 1012.91 1013.07 1013.19 1013.28 1013.40 1013.49 1013.56 1013.59 1013.76 1013.93 1014.17 1014.45
1005.45 1006.02 1006.48 1006.86 1007.33 1007.67 1007.98 1008.22 1008.30 1008.08 1008.28 1008.33 1008.44 1008.72 1008.86 1008.78 1008.78 1008.87 1008.99 1009.27 1009.79 1010.73 1010.94 1011.12 1011.32 1011.53 1011.57 1011.69 1011.80 1011.87 1011.77 1011.57 1011.66 1012.12 1012.38 1012.56 1012.73 1012.83 1013.07 1013.08 1012.94 1013.18 1013.45
1004.64 1005.12 1005.63 1005.95 1006.26 1006.59 1007.06 1007.29 1007.40 1007.66 1007.76 1007.62 1007.47 1007.83 1008.04 1008.29 1008.38 1008.37 1008.95 1009.53 1010.16 1010.31 1010.01 1010.01 1010.11 1010.14 1010.28 1010.41 1010.50 1010.65 1010.76 1010.83 1011.06 1011.16 1011.40 1011.56 1011.64 1011.69 1011.96 1012.08 1012.09 1012.04 1012.10
1003.67 1004.36 1004.82 1005.11 1005.43 1005.70 1006.10 1006.43 1006.58 1006.72 1006.88 1006.87 1006.77 1007.11 1007.00 1007.55 1008.11 1008.63 1009.07 1008.76 1008.72 1008.88 1008.85 1008.91 1008.87 1008.98 1009.04 1009.18 1009.31 1009.53 1009.78 1009.90 1010.01 1010.11 1010.18 1010.26 1010.38 1010.71 1010.80 1010.91 1010.84 1010.83 1010.89
1002.54 1002.87 1003.57 1004.12 1004.83 1005.14 1005.38 1005.61 1005.74 1005.85 1005.95 1005.97 1006.00 1006.02 1006.25 1007.22 1007.96 1008.02 1008.05 1007.88 1007.73 1007.41 1007.45 1007.51 1007.51 1007.64 1007.86 1008.13 1008.28 1008.44 1008.80 1008.94 1009.01 1009.04 1009.08 1009.15 1009.29 1009.63 1009.73 1009.81 1009.93 1009.92 1010.02
1001.83 1002.28 1003.07 1003.42 1003.76 1004.10 1004.37 1004.74 1004.79 1004.96 1004.97 1004.88 1004.79 1004.72 1004.91 1005.53 1005.81 1006.17 1006.32 1006.43 1006.49 1006.47 1006.27 1006.23 1006.19 1006.30 1006.52 1006.79 1006.98 1007.15 1007.34 1007.49 1007.53 1007.60 1007.68 1007.76 1008.11 1008.51 1008.51 1008.53 1008.57 1008.70 1008.97
1001.56 1001.43 1002.27 1002.78 1002.95 1003.33 1003.46 1003.51 1003.66 1003.86 1003.85 1003.93 1003.87 1003.89 1003.96 1004.38 1004.37 1004.41 1004.36 1004.38 1004.42 1004.53 1004.57 1004.65 1004.79 1004.76 1004.82 1005.14 1005.41 1005.78 1005.90 1005.96 1006.13 1006.62 1006.86 1007.00 1007.17 1007.38 1007.38 1007.49 1007.35 1007.53 1007.33
1000.94 1001.26 1001.46 1001.84 1002.06 1002.24 1002.53 1002.57 1002.77 1002.62 1002.61 1002.60 1002.73 1002.84 1002.97 1003.26 1003.20 1003.06 1002.81 1002.47 1002.65 1002.81 1002.95 1003.28 1003.37 1003.46 1003.44 1003.56 1003.65 1003.87 1004.25 1004.30 1004.47 1004.81 1004.99 1005.29 1005.60 1005.85 1005.97 1006.09 1006.11 1005.62 1005.87
999.54 1000.07 1000.25 1000.51 1001.27 1001.57 1001.57 1001.43 1000.97 1001.08 1001.29 1001.42 1001.47 1001.40 1001.42 1001.52 1001.44 1001.39 1001.32 1001.41 1001.51 1001.47 1001.59 1001.79 1001.88 1001.86 1001.90 1002.05 1002.21 1002.19 1002.50 1002.71 1002.73 1002.92 1003.44 1003.80 1003.93 1004.11 1004.40 1004.70 1004.73 1004.42 1004.10
999.44 999.94 999.93 999.84 1000.19 1000.43 1000.55 1000.35 1000.26 1000.19 1000.29 1000.33 1000.35 1000.49 1000.33 1000.20 1000.31 1000.29 999.84 999.70 999.74 999.72 999.71 1000.00 1000.34 1000.45 1000.56 1000.62 1000.89 1001.04 1001.12 1001.44 1001.49 1001.83 1002.42 1002.87 1003.12 1003.29 1003.60 1003.68 1003.48 1003.48 1003.41
999.21 999.19 999.32 999.45 999.58 999.67 999.54 999.37 999.37 999.34 999.36 999.42 999.63 999.66 999.34 999.20 999.03 998.80 998.56 998.29 998.32 998.60 998.85 998.69 998.69 998.76 998.76 998.89 999.23 999.82 1000.00 1000.63 1001.44 1002.39 1002.98 1003.24 1003.06 1003.02 1003.07 1003.08 1002.84 1002.77 1002.64
Thickness
5772 5767 5763 5759 5754 5746 5739 5734 5721 5727 5731 5725 5721 5714 5711 5707 5699 5699 5695 5690 5694 5701 5698 5694 5692 5691 5690 5693 5698 5698 5696 5694 5685 5683 5688 5687 5684 5683 5682 5681 5678 5677 5675
5761 5758 5751 5748 5741 5726 5718 5714 5707 5710 5723 5718 5716 5711 5708 5702 5697 5695 5697 5692 5689 5690 5693 5691 5686 5687 5684 5685 5687 5685 5689 5692 5689 5678 5676 5676 5675 5673 5673 5669 5668 5667 5668
5744 5741 5737 5738 5733 5726 5709 5706 5699 5691 5704 5713 5705 5706 5703 5702 5700 5695 5691 5690 5686 5687 5686 5687 5683 5683 5679 5679 5680 5679 5683 5682 5682 5678 5671 5668 5664 5664 5663 5663 5663 5663 5665
5734 5735 5731 5731 5719 5717 5703 5695 5692 5697 5696 5702 5699 5700 5698 5697 5695 5691 5690 5685 5683 5680 5681 5679 5680 5679 5677 5677 5676 5677 5676 5672 5671 5668 5664 5661 5660 5660 5661 5658 5655 5658 5659
5731 5731 5730 5726 5719 5707 5701 5703 5705 5699 5696 5688 5693 5695 5693 5691 5690 5687 5683 5679 5678 5675 5672 5673 5674 5677 5679 5675 5672 5669 5668 5665 5662 5659 5655 5651 5650 5652 5654 5654 5652 5652 5654
5730 5726 5729 5723 5719 5715 5715 5711 5699 5688 5688 5693 5690 5692 5690 5685 5686 5683 5680 5676 5674 5675 5669 5670 5670 5671 5673 5672 5669 5667 5667 5661 5657 5653 5650 5648 5649 5649 5651 5651 5650 5647 5644
5728 5721 5719 5718 5713 5706 5702 5700 5691 5685 5691 5692 5690 5689 5684 5681 5681 5678 5678 5674 5672 5672 5672 5670 5668 5668 5667 5665 5662 5661 5660 5659 5659 5654 5648 5648 5648 5649 5649 5646 5644 5643 5644
5725 5718 5714 5713 5711 5707 5697 5690 5687 5689 5689 5688 5687 5682 5680 5678 5675 5675 5674 5670 5669 5668 5668 5669 5667 5665 5665 5661 5656 5655 5654 5653 5652 5652 5650 5651 5651 5651 5648 5647 5646 5644 5645
5720 5715 5710 5708 5708 5707 5701 5692 5690 5688 5685 5687 5685 5681 5676 5675 5674 5672 5669 5665 5662 5663 5665 5665 5664 5663 5664 5661 5654 5651 5649 5648 5650 5652 5652 5652 5650 5648 5646 5644 5643 5639 5639
5712 5711 5708 5702 5700 5698 5696 5695 5691 5686 5684 5684 5680 5678 5675 5674 5673 5669 5668 5661 5658 5658 5661 5662 5662 5661 5660 5658 5653 5649 5644 5646 5648 5648 5650 5651 5649 5650 5649 5648 5644 5639 5635
5709 5705 5701 5699 5693 5691 5691 5686 5682 5677 5673 5672 5672 5671 5671 5672 5671 5667 5667 5659 5657 5657 5655 5655 5656 5656 5656 5655 5653 5648 5648 5649 5646 5646 5647 5649 5651 5652 5651 5649 5647 5644 5637
5705 5701 5693 5689 5690 5687 5685 5681 5680 5678 5671 5671 5668 5665 5665 5669 5668 5667 5662 5659 5659 5656 5654 5655 5654 5656 5656 5654 5650 5650 5648 5647 5644 5643 5644 5645 5647 5649 5651 5650 5649 5648 5647
5699 5696 5693 5686 5682 5681 5680 5679 5677 5672 5671 5669 5665 5662 5664 5666 5666 5664 5660 5657 5656 5653 5653 5654 5654 5652 5651 5649 5648 5648 5646 5645 5641 5638 5638 5639 5643 5648 5649 5648 5649 5649 5648
5695 5690 5690 5686 5682 5679 5679 5677 5674 5669 5667 5664 5663 5662 5664 5662 5661 5661 5659 5656 5654 5653 5654 5650 5648 5646 5645 5644 5643 5643 5642 5641 5639 5638 5637 5640 5641 5641 5642 5643 5642 5644 5643
5694 5689 5685 5685 5678 5674 5675 5673 5671 5671 5671 5667 5667 5665 5661 5658 5663 5664 5662 5658 5657 5657 5649 5643 5639 5636 5635 5635 5636 5637 5638 5635 5634 5635 5634 5636 5636 5637 5640 5641 5640 5637 5636
5692 5687 5682 5680 5677 5674 5672 5670 5671 5672 5670 5670 5670 5668 5669 5669 5668 5664 5663 5662 5661 5654 5646 5640 5638 5636 5633 5634 5633 5633 5634 5635 5634 5633 5635 5636 5636 5635 5635 5634 5634 5633 5632
5690 5685 5682 5679 5675 5671 5668 5666 5664 5668 5666 5667 5667 5666 5665 5668 5665 5663 5660 5657 5653 5646 5645 5641 5639 5636 5635 5633 5632 5631 5633 5634 5634 5632 5631 5632 5631 5629 5626 5628 5631 5631 5631
5691 5686 5682 5679 5678 5675 5670 5668 5667 5665 5664 5667 5667 5664 5662 5660 5660 5660 5654 5650 5642 5639 5643 5641 5638 5637 5634 5634 5633 5632 5629 5628 5627 5628 5628 5627 5628 5628 5626 5626 5627 5629 5630
5693 5686 5683 5680 5678 5676 5673 5670 5669 5667 5665 5665 5665 5662 5661 5657 5652 5647 5644 5652 5649 5645 5642 5638 5638 5636 5634 5632 5629 5626 5625 5624 5623 5624 5625 5626 5625 5622 5623 5623 5625 5625 5626
5692 5692 5687 5681 5673 5673 5672 5670 5668 5666 5664 5664 5664 5664 5662 5651 5645 5644 5643 5645 5646 5647 5644 5641 5639 5638 5636 5630 5627 5624 5622 5620 5620 5620 5622 5622 5623 5620 5622 5625 5624 5624 5623
5687 5686 5680 5678 5675 5673 5671 5668 5666 5665 5664 5665 5665 5667 5665 5659 5657 5651 5646 5643 5642 5641 5641 5640 5638 5637 5635 5632 5629 5628 5624 5623 5623 5623 5623 5624 5623 5621 5622 5623 5624 5622 5621
5679 5676 5673 5672 5671 5669 5668 5667 5667 5664 5663 5662 5661 5661 5657 5656 5658 5655 5654 5651 5649 5647 5645 5643 5642 5641 5639 5636 5633 5630 5629 5628 5626 5622 5620 5621 5620 5619 5620 5620 5622 5620 5621
5676 5677 5676 5672 5671 5669 5666 5666 5664 5666 5664 5664 5661 5659 5656 5654 5655 5655 5656 5657 5654 5652 5650 5646 5644 5642 5641 5640 5638 5637 5634 5634 5633 5630 5629 5626 5623 5623 5622 5619 5619 5622 5619
5684 5679 5678 5677 5670 5668 5668 5669 5671 5669 5667 5663 5663 5662 5661 5660 5657 5657 5658 5656 5654 5654 5651 5648 5645 5646 5644 5642 5641 5641 5639 5638 5636 5634 5630 5626 5626 5624 5620 5616 5616 5617 5620
5676 5671 5672 5674 5673 5671 5669 5670 5669 5671 5668 5666 5665 5662 5663 5662 5658 5657 5659 5659 5659 5658 5656 5654 5650 5648 5646 5645 5643 5641 5639 5635 5636 5630 5626 5621 5618 5615 5610 5608 5607 5608 5611
5674 5672 5674 5672 5670 5670 5671 5673 5670 5668 5667 5666 5662 5659 5661 5661 5660 5661 5660 5660 5660 5657 5653 5654 5654 5652 5651 5649 5644 5638 5635 5629 5623 5613 5607 5605 5604 5603 5600 5596 5599 5599 5599